TimeEDT,TemperatureF,Dew PointF,Humidity,Sea Level PressureIn,VisibilityMPH,Wind Direction,Wind SpeedMPH,Gust SpeedMPH,PrecipitationIn,Events,Conditions,WindDirDegrees,DateUTC
12:53 AM,25.0,19.9,81,30.06,10.0,Calm,Calm,-,N/A,,Clear,0,2013-03-24 04:53:00
1:53 AM,23.0,18.0,81,30.06,10.0,Calm,Calm,-,N/A,,Clear,0,2013-03-24 05:53:00
2:53 AM,21.9,17.1,82,30.06,10.0,Calm,Calm,-,N/A,,Clear,0,2013-03-24 06:53:00
3:53 AM,21.0,17.1,85,30.06,10.0,Calm,Calm,-,N/A,,Clear,0,2013-03-24 07:53:00
4:53 AM,21.0,17.1,85,30.04,10.0,Calm,Calm,-,N/A,,Clear,0,2013-03-24 08:53:00
5:53 AM,21.9,19.0,89,30.04,10.0,Calm,Calm,-,N/A,,Clear,0,2013-03-24 09:53:00
6:53 AM,24.1,19.9,84,30.03,10.0,Calm,Calm,-,N/A,,Clear,0,2013-03-24 10:53:00
7:53 AM,24.1,21.0,88,30.01,10.0,NE,5.8,-,N/A,,Clear,50,2013-03-24 11:53:00
8:53 AM,27.0,21.9,81,30.00,10.0,ENE,4.6,-,N/A,,Overcast,70,2013-03-24 12:53:00
9:53 AM,28.9,23.0,78,29.99,10.0,ENE,8.1,-,N/A,,Partly Cloudy,60,2013-03-24 13:53:00
10:53 AM,30.0,25.0,82,29.97,10.0,NE,12.7,20.7,N/A,,Mostly Cloudy,50,2013-03-24 14:53:00
11:53 AM,30.9,24.1,76,29.94,10.0,ENE,15.0,-,N/A,,Mostly Cloudy,60,2013-03-24 15:53:00
12:53 PM,32.0,23.0,69,29.90,10.0,NE,15.0,-,N/A,,Overcast,50,2013-03-24 16:53:00
1:53 PM,34.0,24.1,67,29.87,10.0,NE,16.1,24.2,N/A,,Scattered Clouds,40,2013-03-24 17:53:00
2:53 PM,36.0,24.1,62,29.85,10.0,NE,9.2,-,N/A,,Overcast,50,2013-03-24 18:53:00
3:53 PM,35.1,25.0,67,29.81,10.0,NE,15.0,-,N/A,,Overcast,50,2013-03-24 19:53:00
4:53 PM,36.0,21.9,57,29.78,10.0,NE,11.5,-,N/A,,Overcast,50,2013-03-24 20:53:00
5:53 PM,34.0,21.9,61,29.75,10.0,NE,18.4,31.1,N/A,,Overcast,50,2013-03-24 21:53:00
6:53 PM,32.0,21.0,64,29.74,10.0,NE,16.1,26.5,N/A,,Overcast,40,2013-03-24 22:53:00
7:53 PM,30.9,21.9,69,29.73,10.0,NE,17.3,27.6,N/A,,Overcast,40,2013-03-24 23:53:00
8:53 PM,30.9,21.0,67,29.73,10.0,NE,12.7,25.3,N/A,,Overcast,40,2013-03-25 00:53:00
9:53 PM,30.0,19.9,66,29.73,10.0,NE,17.3,26.5,N/A,,Overcast,50,2013-03-25 01:53:00
10:12 PM,30.2,21.2,69,29.69,10.0,NE,13.8,27.6,N/A,,Overcast,40,2013-03-25 02:12:00
10:53 PM,30.0,21.9,72,29.72,10.0,NE,17.3,23.0,N/A,,Overcast,50,2013-03-25 02:53:00
11:53 PM,30.0,21.9,72,29.71,10.0,NNE,15.0,20.7,N/A,,Overcast,30,2013-03-25 03:53:00